Location: Melbourne
(37.8170°S, 144.9670°E)
Time: 13:33:07
(UTC+11:00)

CZ-3 R/B - Visible Passes

Search period start: 05 March 2015 00:00
Search period end: 15 March 2015 00:00
Orbit: 184 x 13840 km, 28.5° (Epoch: 04 March)

Date Brightness Start Highest point End Pass type
(mag) Time Alt. Az. Time Alt. Az. Time Alt. Az.
05 Mar 6.2 03:44:47 10° WNW 05:58:56 71° NNW 06:29:23 10° ENE visible
05 Mar 6.0 20:18:02 10° NNE 20:40:55 20° ENE 22:18:19 10° ESE visible
06 Mar 6.5 00:41:28 10° NW 02:19:54 72° NNE 03:41:12 10° E visible
06 Mar 5.6 06:06:09 10° W 07:56:44 53° NW 08:15:01 10° NNE visible
06 Mar 6.0 21:54:59 10° N 22:39:27 44° NE 00:38:36 10° ESE visible
07 Mar 6.5 02:36:12 10° WNW 04:46:34 75° N 05:30:15 10° ENE visible
07 Mar 6.3 23:38:48 10° NW 00:51:52 65° NNE 02:36:26 10° E visible
08 Mar 5.9 04:42:08 10° W 06:50:09 63° NNW 07:14:46 10° NE visible
08 Mar 5.9 20:54:38 10° N 21:26:51 33° NE 23:20:36 10° ESE visible
09 Mar 6.7 01:26:39 10° WNW 03:20:18 76° N 04:25:33 10° ENE visible
09 Mar 5.5 07:08:28 10° WSW 08:39:02 40° NW 08:55:15 10° NNE visible
09 Mar 6.1 22:33:12 10° NNW 23:25:02 55° NE 01:24:08 10° E visible
10 Mar 6.3 03:21:10 10° W 05:33:53 71° NNW 06:09:18 10° ENE visible
10 Mar 5.9 19:53:04 10° NNE 20:13:22 20° ENE 21:43:28 10° ESE visible
11 Mar 6.4 00:15:21 10° NW 01:40:44 72° NNE 03:14:36 10° E visible
11 Mar 5.8 05:28:43 10° W 07:27:07 54° NW 07:48:55 10° NNE visible
11 Mar 5.9 21:24:46 10° N 22:01:26 43° NE 00:01:48 10° ESE visible
12 Mar 6.6 02:01:32 10° WNW 04:03:42 76° N 04:58:15 10° ENE visible
12 Mar 6.2 23:01:47 10° NW 23:59:38 63° NNE 01:56:14 10° E visible
13 Mar 6.2 03:55:05 10° W 06:05:54 65° NNW 06:37:11 10° NE visible
13 Mar 5.8 20:14:05 10° N 20:39:18 29° NE 22:23:42 10° ESE visible
14 Mar 6.5 00:41:34 10° WNW 02:16:02 75° N 03:40:57 10° E visible
14 Mar 5.7 06:02:30 10° W 07:51:30 45° NW 08:12:09 10° NNE visible
